Regional Weather Roundup
Issued by NWS State College, PA

Home | Current Version | Previous Version | Graphics & Text | Print | Product List | Glossary Off
Versions: 1 2 3 4 5 6 7 8 9 10 11 12 13 14 15 16 17 18 19 20 21 22 23 24 25 26 27 28 29 30 31 32 33 34 35 36 37 38 39 40 41 42 43 44 45 46 47 48 49 50

000
ASUS41 KCTP 180103
RWRCTP

REGIONAL WEATHER ROUNDUP
NATIONAL WEATHER SERVICE STATE COLLEGE PA
900 PM EDT THU APR 17 2014

Note: "fair" indicates few or no clouds below 12,000 feet with no
significant weather and/or obstructions to visibility.

* = STATION THAT DOES NOT REPORT PRECIPITATION /E.G. RAIN...SNOW...ETC/
    THUNDER OR FOG.

PAZ002>004-007>009-013>016-020>023-029>032-180200-
WESTERN PENNSYLVANIA

CITY           SKY/WX    TMP DP  RH WIND       PRES   REMARKS
ERIE           PTCLDY    57  26  30 SE6       30.32S
MEADVILLE      CLEAR     54  25  32 VRB3      30.33R
FRANKLIN*      CLEAR     50  27  40 SE14G20   30.37S
NEW CASTLE     FAIR      56  26  31 SE6       30.34R
BEAVER COUNTY  CLEAR     55  27  33 SE8       30.33R
BUTLER*        CLEAR     52  27  37 SE9       30.38R
PITTSBURGH INT PTCLDY    56  27  32 SE14      30.34R
PITTSBURGH     CLEAR     55  26  32 SE9       30.35R
INDIANA*       CLEAR     48  25  40 SE10G16   30.40S
LATROBE        CLEAR     52  28  40 SE9       30.38S
WASHINGTON CO* CLEAR     54  25  32 E7        30.35S
$$

PAZ004>006-010>012-017>019-024>028-033>037-041-042-045-046-049>053-180200-
CENTRAL PENNSYLVANIA

CITY           SKY/WX    TMP DP  RH WIND       PRES   REMARKS
BRADFORD       CLEAR     45  21  38 SE9       30.40R
DUBOIS         CLEAR     48  23  37 SE12      30.40R
CLEARFIELD     CLEAR     47  24  40 VRB5      30.44S
JOHNSTOWN      CLEAR     43  23  45 SE8G17    30.41S
ALTOONA        CLEAR     47  29  49 SE15      30.46S
STATE COLLEGE  CLEAR     48  25  40 S12       30.47S
WILLIAMSPORT   CLEAR     50  26  39 VRB3G17   30.51R
SELINSGROVE    CLEAR     47  29  49 S7        30.53S
FT INDIANTOWN  NOT AVBL
CAPITAL CITY   CLEAR     48  30  49 SE9       30.55R
HARRISBURG     PTCLDY    50  33  52 S9        30.55R
YORK           CLEAR     44  32  62 SE7       30.55R
$$

PAZ038>040-043-044-047-048-054-055-060>062-067>071-180200-
EASTERN PENNSYLVANIA

CITY           SKY/WX    TMP DP  RH WIND       PRES   REMARKS
SCRANTON       CLEAR     43  25  49 S7G18     30.54R
MOUNT POCONO   CLEAR     35  25  66 SE9       30.53S
ALLENTOWN      CLEAR     42  27  55 E8        30.61R
QUAKERTOWN*    CLEAR     39  28  65 E7        30.61S
READING        CLEAR     44  27  51 SE9G17    30.58R
LANCASTER      CLEAR     42  30  62 SE10      30.56R
COATESVILLE    CLEAR     41  27  56 SE8       30.59R
POTTSTOWN      CLEAR     40  28  62 VRB5      30.62S
BLUE BELL      CLEAR     41  30  65 E5        30.61S
DOYLESTOWN     CLEAR     38  29  70 CALM      30.61S
WILLOW GROVE   NOT AVBL
NORTH PHILA    CLEAR     41  28  60 SE10      30.65S
PHILADELPHIA   PTCLDY    42  27  55 E12       30.63F
$$



USA.gov is the U.S. government's official web portal to all federal, state and local government web resources and services.